Location: Goettingen
(51.5300°N, 9.9433°E)
Time: 06:22:12
(UTC+01:00)

ISS - Pass Details

Date: 03 December 2019
Orbit: 411 x 421 km, 51.6° (Epoch: 15 December)

Event Time Altitude Azimuth Distance (km) Brightness Sun altitude
Rises 19:12:06 0° 283° (WNW) 2,363 1.2 -26.7°
Reaches altitude 10° 19:14:13 10° 279° (W) 1,499 0.0 -27.0°
Enters shadow 19:15:42 24° 270° (W) 928 -1.3 -27.2°
